SV2TW-2 Weather Reports


time (UTC)temp
C
wind
direction
speed
KPH
gust
KPH
rain 1hr
cm
rain 24hr
cm
rain mn
cm
humidity
%
barometer
mb
20260504050704 10 315 3.2 0.0 0.00 0.00 0.00 51 1013.0
20260504050204 10 270 1.6 0.0 0.00 0.00 0.00 52 1013.0
20260504045704 9 315 0.0 0.0 0.00 0.00 0.00 53 1013.0
20260504045205 9 315 3.2 0.0 0.00 0.00 0.00 55 1012.8
20260504044705 8 225 1.6 0.0 0.00 0.00 0.00 57 1012.6
20260504044203 8 270 1.6 0.0 0.00 0.00 0.00 58 1012.8
20260504043704 7 270 3.2 0.0 0.00 0.00 0.00 60 1012.8
20260504043204 7 270 3.2 0.0 0.00 0.00 0.00 65 1012.6
20260504042205 6 270 1.6 0.0 0.00 0.00 0.00 70 1012.8
20260504041704 6 270 1.6 0.0 0.00 0.00 0.00 71 1012.6
20260504041204 5 270 3.2 0.0 0.00 0.00 0.00 71 1012.6
20260504035204 4 225 1.6 0.0 0.00 0.00 0.00 70 1012.4
20260504034704 4 225 3.2 0.0 0.00 0.00 0.00 71 1012.4
20260504034204 4 180 1.6 0.0 0.00 0.00 0.00 72 1012.5
20260504033704 3 225 3.2 0.0 0.00 0.00 0.00 74 1012.4
20260504033204 3 180 3.2 0.0 0.00 0.00 0.00 77 1012.4
20260504032704 2 180 3.2 0.0 0.00 0.00 0.00 80 1012.4
20260504031704 2 225 0.0 0.0 0.00 0.00 0.97 80 1012.4
20260504031204 2 225 1.6 0.0 0.00 0.00 0.97 80 1012.4
20260504030704 2 225 3.2 0.0 0.00 0.00 0.97 80 1012.3
20260504030204 1 180 0.0 0.0 0.00 0.00 0.97 80 1012.4
20260504025705 1 180 1.6 0.0 0.00 0.00 0.97 80 1012.3
20260504025204 1 270 4.8 0.0 0.00 0.00 0.97 80 1012.3
20260504024704 1 225 3.2 0.0 0.00 0.00 0.97 80 1012.4
20260504024204 1 225 3.2 0.0 0.00 0.00 0.97 79 1012.4
20260504022704 2 270 3.2 0.0 0.00 0.00 0.97 79 1012.3
20260504022205 2 225 1.6 0.0 0.00 0.00 0.97 79 1012.4
20260504021704 2 225 1.6 0.0 0.00 0.00 0.97 79 1012.3
20260504021204 2 225 1.6 0.0 0.00 0.00 0.97 80 1012.3
20260504020703 2 225 1.6 0.0 0.00 0.00 0.97 80 1012.3
20260504020204 2 225 1.6 0.0 0.00 0.00 0.97 80 1012.3
20260504015704 2 225 1.6 0.0 0.00 0.00 0.97 80 1012.4
20260504015204 2 225 1.6 0.0 0.00 0.00 0.97 80 1012.4
20260504013204 2 270 1.6 0.0 0.00 0.00 0.97 80 1012.4
20260504012704 2 225 3.2 0.0 0.00 0.00 0.00 80 1012.3
20260504012204 2 180 3.2 0.0 0.00 0.00 0.00 80 1012.4
20260504011704 2 270 1.6 0.0 0.00 0.00 0.00 80 1012.3
20260504011204 2 225 0.0 0.0 0.00 0.00 0.00 80 1012.3
20260504010704 2 225 1.6 0.0 0.00 0.00 0.00 80 1012.2
20260504010204 2 225 3.2 0.0 0.00 0.00 0.00 80 1012.3
20260504005704 2 270 1.6 0.0 0.00 0.00 0.00 80 1012.3
20260504005204 2 225 1.6 0.0 0.00 0.00 0.00 80 1012.2
20260504004704 2 225 1.6 0.0 0.00 0.00 0.00 81 1012.3
20260504004204 2 225 3.2 0.0 0.00 0.00 0.00 81 1012.2
20260504003704 2 180 1.6 0.0 0.00 0.00 0.10 81 1012.1
20260504003204 2 180 1.6 0.0 0.00 0.00 0.10 81 1012.2
20260504002704 2 225 0.0 0.0 0.00 0.00 0.10 80 1012.1
20260504002204 2 270 0.0 0.0 0.00 0.00 0.10 80 1012.1
20260504001704 2 270 0.0 0.0 0.00 0.00 0.10 80 1012.2
20260504001204 2 225 0.0 0.0 0.00 0.00 0.10 80 1012.2
20260504000704 2 225 0.0 0.0 0.00 0.00 0.10 80 1012.1
20260504000204 2 225 0.0 0.0 0.00 0.00 0.10 80 1012.2
20260503235204 2 225 0.0 0.0 0.00 0.00 0.10 80 1012.2
20260503234704 2 225 0.0 0.0 0.00 0.00 0.10 80 1012.1
20260503233704 2 270 0.0 0.0 0.00 0.00 0.10 80 1012.1
20260503233204 2 225 0.0 0.0 0.00 0.00 0.10 80 1012.0
20260503232703 2 180 0.0 0.0 0.00 0.00 0.10 80 1012.3
20260503232204 2 270 0.0 0.0 0.00 0.00 0.10 80 1012.2
20260503231704 2 225 0.0 0.0 0.00 0.00 0.10 80 1012.2
20260503231204 2 225 0.0 0.0 0.00 0.00 0.10 80 1012.2
20260503230704 2 270 0.0 0.0 0.00 0.00 0.10 80 1012.2
20260503225704 2 225 0.0 0.0 0.00 0.00 0.10 80 1012.2
20260503224704 2 225 0.0 0.0 0.00 0.00 0.10 80 1012.0
20260503224204 2 225 0.0 0.0 0.00 0.00 0.00 80 1012.0
20260503223704 2 270 0.0 0.0 0.00 0.00 0.97 80 1011.9
20260503223205 2 225 0.0 0.0 0.00 0.00 0.97 80 1012.0
20260503222704 2 225 0.0 0.0 0.00 0.00 0.97 80 1012.0
20260503222204 2 225 0.0 0.0 0.00 0.00 0.97 80 1012.0
20260503221704 3 225 0.0 0.0 0.00 0.00 0.97 80 1011.9
20260503221204 2 225 0.0 0.0 0.00 0.00 0.97 80 1011.9
20260503220704 3 225 0.0 0.0 0.00 0.00 0.97 80 1011.9
20260503220204 3 270 0.0 0.0 0.00 0.00 0.97 80 1011.9
20260503215704 3 225 0.0 0.0 0.00 0.00 0.97 80 1011.9
20260503215204 3 225 0.0 0.0 0.00 0.00 0.97 80 1011.9
20260503214204 3 270 0.0 0.0 0.00 0.00 0.97 79 1011.9
20260503213704 3 270 0.0 0.0 0.00 0.00 0.97 79 1011.9
20260503213204 3 270 0.0 0.0 0.00 0.00 0.97 79 1011.7
20260503212704 3 270 0.0 0.0 0.00 0.00 0.97 78 1011.8
20260503212204 3 225 0.0 0.0 0.00 0.00 0.97 78 1012.0
20260503211704 3 225 0.0 0.0 0.00 0.00 0.97 78 1011.9
20260503211203 3 225 0.0 0.0 0.00 0.00 0.97 78 1011.9
20260503210204 3 270 1.6 0.0 0.00 0.00 0.97 76 1012.1
20260503205704 4 225 1.6 0.0 0.00 0.00 0.97 76 1012.0
20260503205204 4 225 1.6 0.0 0.00 0.00 0.97 77 1011.8
20260503204703 4 225 1.6 0.0 0.00 0.00 0.97 77 1011.9
20260503204204 4 225 1.6 0.0 0.00 0.00 0.97 77 1012.0
20260503203704 3 225 1.6 0.0 0.00 0.00 0.97 77 1012.1
20260503203204 3 225 1.6 0.0 0.00 0.00 0.97 76 1011.9
20260503202704 4 270 3.2 0.0 0.00 0.00 0.97 75 1012.0
20260503202204 4 270 0.0 0.0 0.00 0.00 0.97 76 1012.0
20260503201704 4 225 0.0 0.0 0.00 0.00 0.97 76 1012.1
20260503201204 4 225 0.0 0.0 0.00 0.00 0.97 76 1011.9
20260503200704 4 270 0.0 0.0 0.00 0.00 0.97 77 1012.1
20260503200204 4 225 0.0 0.0 0.00 0.00 0.97 77 1011.9
20260503195703 4 225 0.0 0.0 0.00 0.00 0.97 77 1012.0
20260503195204 4 225 0.0 0.0 0.00 0.00 0.97 76 1011.9
20260503194704 4 225 0.0 0.0 0.00 0.00 0.97 76 1012.0
20260503193704 4 225 0.0 0.0 0.00 0.00 0.97 74 1012.0
20260503193204 4 225 0.0 0.0 0.00 0.00 0.97 74 1012.0
20260503192704 4 225 0.0 0.0 0.00 0.00 0.97 74 1011.9
20260503192204 5 225 0.0 0.0 0.00 0.00 0.97 73 1012.0
20260503191704 5 225 0.0 0.0 0.00 0.00 0.97 73 1011.9
20260503191203 5 225 0.0 0.0 0.00 0.00 0.97 74 1011.9
20260503190704 5 225 0.0 0.0 0.00 0.00 0.97 74 1012.0
20260503190204 5 225 0.0 0.0 0.00 0.00 0.97 74 1011.9
20260503185704 5 225 0.0 0.0 0.00 0.00 0.97 73 1011.9
20260503185204 5 225 0.0 0.0 0.00 0.00 0.97 73 1011.8
20260503184704 5 225 0.0 0.0 0.00 0.00 0.97 73 1011.9
20260503184204 5 225 0.0 0.0 0.00 0.00 0.97 73 1011.6
20260503183704 5 225 0.0 0.0 0.00 0.00 0.97 73 1011.7
20260503183204 5 225 0.0 0.0 0.00 0.00 0.97 72 1011.7
20260503182204 5 225 0.0 0.0 0.00 0.00 0.97 73 1011.5
20260503181703 6 225 0.0 0.0 0.00 0.00 0.97 73 1011.4
20260503180704 6 225 0.0 0.0 0.00 0.00 0.97 71 1011.3
20260503180204 6 225 0.0 0.0 0.00 0.00 0.97 70 1011.4
20260503175704 6 270 0.0 0.0 0.00 0.00 0.97 68 1011.3
20260503174204 7 225 0.0 0.0 0.00 0.00 0.97 57 1011.4
20260503173703 7 225 0.0 0.0 0.00 0.00 0.97 56 1011.5
20260503173204 8 225 0.0 0.0 0.00 0.00 0.97 55 1011.1
20260503172204 8 180 0.0 0.0 0.00 0.00 0.97 53 1011.1
20260503171703 8 270 3.2 0.0 0.00 0.00 0.97 53 1011.0
20260503171204 9 270 1.6 0.0 0.00 0.00 0.97 51 1010.7
20260503170703 10 248 3.2 0.0 0.00 0.00 0.97 49 1010.8
20260503160204 13 45 6.4 0.0 0.00 0.00 0.97 33 1009.8
20260503150705 13 68 6.4 0.0 0.00 0.00 0.97 32 1009.6
20260503150204 13 45 9.7 0.0 0.00 0.00 0.97 32 1009.7
20260503131204 12 0 14.5 0.0 0.00 0.00 0.97 31 1011.0
20260503130704 13 315 11.3 0.0 0.00 0.00 0.97 31 1010.7
20260503130204 13 315 11.3 0.0 0.00 0.00 0.97 30 1010.4
20260503120204 13 315 4.8 0.0 0.00 0.00 0.97 34 1010.9
20260503110704 12 45 4.8 0.0 0.00 0.00 0.97 37 1011.0
20260503110204 12 0 6.4 0.0 0.00 0.00 0.97 40 1011.1
20260503100204 11 90 11.3 0.0 0.00 0.00 0.97 40 1011.3
20260503090204 11 0 12.9 0.0 0.00 0.00 0.97 45 1011.6
20260503081204 9 45 6.4 0.0 0.00 0.00 0.97 46 1011.5
20260503080704 10 315 12.9 0.0 0.00 0.00 0.97 50 1011.5
20260503080204 9 0 14.5 0.0 0.00 0.00 0.97 52 1011.5
20260503072704 10 45 6.4 0.0 0.00 0.00 0.97 60 1011.5
20260503072203 10 270 6.4 0.0 0.00 0.00 0.97 60 1011.4
20260503071704 9 45 6.4 0.0 0.00 0.00 0.97 60 1011.5
20260503071204 9 90 4.8 0.0 0.00 0.00 0.97 60 1011.4
20260503070704 8 45 17.7 0.0 0.00 0.00 0.97 60 1011.3
20260503070204 8 0 12.9 0.0 0.00 0.00 0.97 60 1011.3
20260503060204 8 45 3.2 0.0 0.00 0.00 0.00 71 1010.9
20260503054704 8 45 6.4 0.0 0.00 0.00 0.00 75 1010.9
20260503053204 7 180 3.2 0.0 0.00 0.00 0.00 81 1010.7
20260503052703 7 45 4.8 0.0 0.00 0.00 0.00 88 1010.7
20260503052204 6 0 3.2 0.0 0.00 0.00 0.00 90 1010.6